Weather History for Washington, MO

Change the Weather History Date:

Saturday, July 6, 2013

  Actual Average (KSTL) Record (KSTL)
Temperature  
Mean Temperature 75 °F 80 °F  
Max Temperature 86 °F 89 °F 106 °F (2012)
Min Temperature 64 °F 71 °F 51 °F (1972)
Degree Days  
Heating Degree Days 0 0  
Month to date heating degree days 0  
Since 1 June heating degree days 5  
Since 1 July heating degree days 0  
Cooling Degree Days 10 15  
Month to date cooling degree days 90  
Year to date cooling degree days 598  
Since 1 June cooling degree days 424  
Growing Degree Days 25 (Base 50)    
Moisture  
Dew Point 66 °F    
Average Humidity 79    
Maximum Humidity 100    
Minimum Humidity 48    
Precipitation  
Precipitation 0.00 in 0.14 in 3.10 in (1987)
Month to date precipitation 0.78  
Year to date precipitation 21.43  
Snow  
Snow 0.00 in 0.00 in 0.00 in (2012)
Month to date snowfall 0.0  
Since 1 June snowfall 0.0  
Since 1 July snowfall 0.0  
Snow Depth -    
Sea Level Pressure  
Sea Level Pressure 30.01 in    
Wind  
Wind Speed 2 mph (SSE)    
Max Wind Speed 12 mph    
Max Gust Speed 22 mph    
Visibility 8 miles    
Events Fog , Rain , Thunderstorm    
T = Trace of Precipitation, MM = Missing Value Source: NWS Daily Summary

Daily Weather History Graph

Daily Weather History Graph

Search for Another Location

Airport:

Trip Planner

Search our weather history database for the weather conditions in past years. The results will help you decide how hot, cold, wet, or windy it might be!

Date:

Astronomy

Jul. 06, 2013 Rise Set
Actual Time 5:46 AM CDT 8:31 PM CDT
Civil Twilight 5:14 AM CDT 9:02 PM CDT
Nautical Twilight 4:35 AM CDT 9:42 PM CDT
Astronomical Twilight 3:50 AM CDT 10:26 PM CDT
Moon 4:31 AM CDT (7/6) 7:13 PM CDT (7/6)
Length of Visible Light 15h 48m
Length of Day
14h 45m
Waning Crescent, 2% of the Moon is Illuminated
Jul 6
Waning Crescent
Jul 8
New
Jul 15
First Quarter
Jul 22
Full
Jul 29
Last Quarter

Hourly Weather History & Observations

Time (CDT) Temp. Heat Index Dew Point Humidity Pressure Visibility Wind Dir Wind Speed Gust Speed Precip Events Conditions
12:15 AM 68.0 °F - 66.2 °F 94% 30.03 in 7.0 mi Calm Calm - N/A   Clear
12:35 AM 68.0 °F - 68.0 °F 100% 30.02 in 7.0 mi Calm Calm - N/A   Clear
12:55 AM 68.0 °F - 66.2 °F 94% 30.02 in 7.0 mi Calm Calm - N/A   Clear
1:15 AM 68.0 °F - 66.2 °F 94% 30.01 in 7.0 mi Calm Calm - N/A   Clear
1:35 AM 69.8 °F - 68.0 °F 94% 30.01 in 8.0 mi Calm Calm - N/A   Clear
1:55 AM 66.2 °F - 66.2 °F 100% 30.02 in 5.0 mi Calm Calm - N/A   Clear
2:15 AM 66.2 °F - 66.2 °F 100% 30.02 in 5.0 mi Calm Calm - N/A   Clear
2:35 AM 66.2 °F - 66.2 °F 100% 30.03 in 5.0 mi Calm Calm - N/A   Clear
2:55 AM 64.4 °F - 64.4 °F 100% 30.02 in 4.0 mi Calm Calm - N/A   Clear
3:15 AM 66.2 °F - 66.2 °F 100% 30.01 in 4.0 mi Calm Calm - N/A   Clear
3:35 AM 66.2 °F - 66.2 °F 100% 30.01 in 3.0 mi Calm Calm - N/A   Clear
3:55 AM 66.2 °F - 66.2 °F 100% 30.01 in 4.0 mi Calm Calm - N/A   Clear
4:15 AM 64.4 °F - 64.4 °F 100% 30.02 in 4.0 mi SSE 3.5 mph - N/A   Clear
4:35 AM 64.4 °F - 64.4 °F 100% 30.02 in 3.0 mi Calm Calm - N/A   Clear
4:55 AM 64.4 °F - 64.4 °F 100% 30.02 in 3.0 mi Calm Calm - N/A   Clear
5:15 AM 64.4 °F - 64.4 °F 100% 30.03 in 2.0 mi Calm Calm - N/A   Clear
5:35 AM 64.4 °F - 64.4 °F 100% 30.03 in 2.0 mi Calm Calm - N/A   Clear
5:55 AM 64.4 °F - 64.4 °F 100% 30.03 in 1.8 mi Calm Calm - N/A   Clear
6:15 AM 64.4 °F - 64.4 °F 100% 30.03 in 0.8 mi Calm Calm - N/A   Mist
6:35 AM 64.4 °F - 64.4 °F 100% 30.03 in 0.5 mi Calm Calm - N/A Fog Fog
6:55 AM 64.4 °F - 64.4 °F 100% 30.03 in 0.2 mi Calm Calm - N/A Fog Fog
7:15 AM 64.4 °F - 64.4 °F 100% 30.04 in 1.0 mi Calm Calm - N/A   Clear
7:35 AM 68.0 °F - 68.0 °F 100% 30.04 in 4.0 mi Calm Calm - N/A   Clear
7:55 AM 69.8 °F - 69.8 °F 100% 30.04 in 5.0 mi Calm Calm - N/A   Clear
8:15 AM 71.6 °F - 68.0 °F 88% 30.05 in 7.0 mi SE 4.6 mph - N/A   Clear
8:35 AM 73.4 °F - 68.0 °F 83% 30.05 in 8.0 mi SSE 4.6 mph - N/A   Clear
8:55 AM 73.4 °F - 68.0 °F 83% 30.05 in 9.0 mi Calm Calm - N/A   Clear
9:15 AM 75.2 °F - 68.0 °F 78% 30.05 in 10.0 mi Calm Calm - N/A   Clear
9:35 AM 75.2 °F - 68.0 °F 78% 30.05 in 10.0 mi Calm Calm - N/A   Clear
9:55 AM 77.0 °F - 68.0 °F 74% 30.04 in 10.0 mi SE 4.6 mph - N/A   Clear
10:15 AM 78.8 °F - 68.0 °F 69% 30.04 in 10.0 mi SSE 5.8 mph - N/A   Clear
10:35 AM 80.6 °F 83.2 °F 68.0 °F 65% 30.04 in 10.0 mi SSE 6.9 mph - N/A   Clear
11:15 AM 80.6 °F 83.2 °F 68.0 °F 65% 30.03 in 10.0 mi SE 4.6 mph - N/A   Clear
11:35 AM 82.4 °F 85.4 °F 68.0 °F 62% 30.03 in 10.0 mi SSE 5.8 mph - N/A   Clear
11:55 AM 82.4 °F 84.6 °F 66.2 °F 58% 30.03 in 10.0 mi South 4.6 mph - N/A   Clear
12:15 PM 84.2 °F 87.3 °F 68.0 °F 58% 30.02 in 10.0 mi SE 3.5 mph - N/A   Clear
12:35 PM 84.2 °F 87.3 °F 68.0 °F 58% 30.01 in 10.0 mi South 5.8 mph - N/A   Clear
12:55 PM 84.2 °F 87.3 °F 68.0 °F 58% 30.01 in 10.0 mi SE 6.9 mph - N/A   Clear
1:15 PM 84.2 °F 86.6 °F 66.2 °F 55% 30.00 in 10.0 mi SSE 6.9 mph - N/A   Clear
1:35 PM 86.0 °F 88.2 °F 66.2 °F 51% 29.99 in 10.0 mi SSW 5.8 mph - N/A   Clear
1:55 PM 86.0 °F 88.2 °F 66.2 °F 51% 29.98 in 10.0 mi SE 5.8 mph - N/A   Partly Cloudy
2:15 PM 84.2 °F 85.6 °F 64.4 °F 51% 29.98 in 10.0 mi SE 4.6 mph - N/A   Scattered Clouds
2:35 PM 84.2 °F 87.3 °F 68.0 °F 58% 29.98 in 10.0 mi SE 6.9 mph - N/A   Partly Cloudy
2:55 PM 84.2 °F 86.6 °F 66.2 °F 55% 29.98 in 10.0 mi SSE 4.6 mph - N/A   Clear
3:15 PM 86.0 °F 87.3 °F 64.4 °F 48% 29.97 in 10.0 mi SSE 6.9 mph - N/A   Clear
3:35 PM 82.4 °F 85.4 °F 68.0 °F 62% 29.97 in 10.0 mi Calm Calm - N/A Thunderstorm Partly Cloudy
3:55 PM 80.6 °F 82.7 °F 66.2 °F 61% 29.98 in 8.0 mi West 6.9 mph - N/A Thunderstorm Thunderstorm
4:15 PM 80.6 °F 83.2 °F 68.0 °F 65% 29.97 in 7.0 mi South 3.5 mph - N/A Rain Light Rain
4:35 PM 80.6 °F 83.2 °F 68.0 °F 65% 29.97 in 10.0 mi Calm Calm - N/A   Clear
4:55 PM 78.8 °F - 69.8 °F 74% 29.97 in 10.0 mi Calm Calm - N/A   Clear
5:15 PM 77.0 °F - 71.6 °F 83% 29.97 in 10.0 mi Calm Calm - N/A   Clear
5:35 PM 82.4 °F 85.4 °F 68.0 °F 62% 29.97 in 10.0 mi Calm Calm - N/A   Clear
5:55 PM 84.2 °F 86.6 °F 66.2 °F 55% 29.96 in 10.0 mi SSW 5.8 mph - N/A Thunderstorm Clear
6:15 PM 82.4 °F 83.9 °F 64.4 °F 54% 29.97 in 10.0 mi South 5.8 mph - N/A   Clear
6:35 PM 80.6 °F 82.3 °F 64.4 °F 58% 29.99 in 10.0 mi SE 11.5 mph 21.9 mph N/A   Clear
6:55 PM 77.0 °F - 62.6 °F 61% 29.98 in 10.0 mi SSE 8.1 mph - N/A   Clear
7:15 PM 75.2 °F - 62.6 °F 65% 29.98 in 10.0 mi SSE 5.8 mph - N/A   Clear
7:35 PM 77.0 °F - 64.4 °F 65% 29.97 in 10.0 mi Calm Calm - N/A   Clear
7:55 PM 75.2 °F - 64.4 °F 69% 29.96 in 10.0 mi Calm Calm - N/A   Clear
8:15 PM 73.4 °F - 64.4 °F 73% 29.97 in 10.0 mi Calm Calm - N/A   Clear
8:35 PM 73.4 °F - 64.4 °F 73% 29.98 in 10.0 mi Calm Calm - N/A   Clear
8:55 PM 71.6 °F - 64.4 °F 78% 29.98 in 8.0 mi Calm Calm - N/A   Clear
9:15 PM 73.4 °F - 62.6 °F 69% 29.99 in 10.0 mi East 5.8 mph - N/A   Clear
9:35 PM 71.6 °F - 64.4 °F 78% 30.00 in 10.0 mi SSE 4.6 mph - N/A   Clear
9:55 PM 69.8 °F - 64.4 °F 83% 30.01 in 10.0 mi ESE 3.5 mph - N/A   Clear
10:15 PM 69.8 °F - 66.2 °F 88% 30.01 in 10.0 mi Calm Calm - N/A   Clear
10:35 PM 68.0 °F - 64.4 °F 88% 30.01 in 10.0 mi SE 4.6 mph - N/A   Clear
10:55 PM 71.6 °F - 64.4 °F 78% 30.02 in 10.0 mi Calm Calm - N/A   Clear
11:15 PM 71.6 °F - 66.2 °F 83% 30.02 in 10.0 mi SE 5.8 mph - N/A   Clear
11:35 PM 71.6 °F - 66.2 °F 83% 30.02 in 10.0 mi SE 4.6 mph - N/A   Clear
11:55 PM 71.6 °F - 66.2 °F 83% 30.02 in 10.0 mi SE 5.8 mph - N/A   Clear